K5HAS Weather Reports


Display with metric or nautical units.
time (UTC)temp
F
wind
direction
speed
MPH
gust
MPH
rain 1hr
in
rain 24hr
in
rain mn
in
humidity
%
barometer
mb
20260903075422 82 133 7.0 11.0 0.00 0.00 0.00 87 1011.1
20260903074919 82 90 7.0 11.0 0.00 0.00 0.00 88 1011.1
20260903074420 82 90 6.0 10.0 0.00 0.00 0.00 88 1011.3
20260903073921 82 166 5.0 9.0 0.00 0.00 0.00 87 1011.3
20260903073421 82 166 4.0 8.0 0.00 0.00 0.00 87 1011.3
20260903072910 82 90 4.0 7.0 0.00 0.00 0.00 87 1011.3
20260903072412 82 165 4.0 8.0 0.00 0.00 0.00 87 1011.3
20260903071909 82 161 4.0 8.0 0.00 0.00 0.00 87 1011.3
20260903071410 82 164 4.0 8.0 0.00 0.00 0.00 87 1011.3
20260903070910 82 90 5.0 10.0 0.00 0.00 0.00 87 1011.3
20260903070409 82 90 6.0 10.0 0.00 0.00 0.00 87 1011.3
20260903065909 82 181 6.0 9.0 0.00 0.00 0.00 87 1011.7
20260903065409 82 90 4.0 9.0 0.00 0.00 0.00 87 1011.7
20260903065129 82 90 4.0 9.0 0.00 0.00 0.00 86 1011.7
20260903064407 83 90 4.0 9.0 0.00 0.00 0.00 87 1011.5
20260903063905 83 168 5.0 11.0 0.00 0.00 0.00 87 1011.5
20260903063405 83 155 6.0 11.0 0.00 0.00 0.00 86 1011.5
20260903063126 83 174 6.0 11.0 0.00 0.00 0.00 86 1011.7
20260903062402 83 170 7.0 13.0 0.00 0.00 0.00 86 1011.7
20260903061902 83 174 8.0 13.0 0.00 0.00 0.00 86 1011.7
20260903061400 83 160 7.0 13.0 0.00 0.00 0.00 86 1011.7
20260903060859 83 157 7.0 11.0 0.00 0.00 0.00 86 1011.7
20260903060359 83 90 8.0 13.0 0.00 0.00 0.00 86 1011.7
20260903055857 83 166 7.0 13.0 0.00 0.00 0.00 86 1011.6
20260903055357 83 164 7.0 13.0 0.00 0.00 0.00 87 1011.6
20260903054851 83 176 7.0 13.0 0.00 0.00 0.00 87 1011.6
20260903054342 83 169 6.0 13.0 0.00 0.00 0.00 87 1011.5
20260903054056 83 126 7.0 13.0 0.00 0.00 0.00 87 1011.5
20260903053319 83 141 7.0 14.0 0.00 0.00 0.00 87 1011.5
20260903053027 83 142 8.0 14.0 0.00 0.00 0.00 87 1011.4
20260903052306 83 160 8.0 15.0 0.00 0.00 0.00 87 1011.4
20260903052023 83 147 8.0 15.0 0.00 0.00 0.00 87 1011.4
20260903051302 83 90 9.0 12.0 0.00 0.00 0.00 87 1011.4
20260903051027 83 174 9.0 14.0 0.00 0.00 0.00 87 1011.4
20260903050300 83 154 9.0 14.0 0.00 0.00 0.00 87 1011.4
20260903045759 83 90 8.0 13.0 0.00 0.00 0.00 87 1011.5
20260903045300 83 166 8.0 13.0 0.00 0.00 0.00 87 1011.5
20260903045025 83 90 7.0 13.0 0.00 0.00 0.00 87 1011.5
20260903044259 83 90 7.0 11.0 0.00 0.00 0.00 87 1011.4
20260903043801 83 158 8.0 12.0 0.00 0.00 0.00 87 1011.4
20260903043259 83 90 8.0 12.0 0.00 0.00 0.00 87 1011.4
20260903043019 83 90 8.0 12.0 0.00 0.00 0.00 87 1011.4
20260903042305 83 145 7.0 12.0 0.00 0.00 0.00 87 1011.4
20260903041758 83 159 6.0 10.0 0.00 0.00 0.00 87 1011.4
20260903041255 83 159 5.0 10.0 0.00 0.00 0.00 87 1011.4
20260903040802 83 166 5.0 10.0 0.00 0.00 0.00 87 1011.4
20260903040252 83 152 5.0 11.0 0.00 0.00 0.00 87 1011.4
20260903035751 83 150 5.0 11.0 0.00 0.00 0.00 86 1011.4
20260903035251 83 155 5.0 9.0 0.00 0.00 0.00 86 1011.4
20260903034749 83 90 6.0 11.0 0.00 0.00 0.00 86 1011.4
20260903034248 83 138 6.0 11.0 0.00 0.00 0.00 86 1011.4
20260903033959 83 147 6.0 12.0 0.00 0.00 0.00 86 1011.4
20260903033504 83 151 8.0 12.0 0.00 0.00 0.00 86 1011.4
20260903032721 83 155 9.0 13.0 0.00 0.00 0.00 86 1011.0
20260903032216 83 159 9.0 13.0 0.00 0.00 0.00 86 1011.0
20260903031710 83 143 8.0 13.0 0.00 0.00 0.00 86 1011.0
20260903031200 83 145 8.0 13.0 0.00 0.00 0.00 86 1010.8
20260903030926 83 164 9.0 15.0 0.00 0.00 0.00 85 1010.8
20260903030428 83 90 9.0 15.0 0.00 0.00 0.00 86 1010.8
20260903025701 83 159 8.0 13.0 0.00 0.00 0.00 86 1010.9
20260903025157 83 157 8.0 13.0 0.00 0.00 0.00 85 1010.9
20260903024656 84 161 8.0 13.0 0.00 0.00 0.00 85 1010.9
20260903024156 84 164 8.0 12.0 0.00 0.00 0.00 85 1010.8
20260903023923 84 90 8.0 12.0 0.00 0.00 0.00 85 1010.8
20260903023157 84 168 7.0 13.0 0.00 0.00 0.00 85 1010.8
20260903022927 84 90 8.0 13.0 0.00 0.00 0.00 85 1010.7
20260903022157 84 90 8.0 15.0 0.00 0.00 0.00 85 1010.7
20260903021929 84 155 8.0 15.0 0.00 0.00 0.00 85 1010.7
20260903021154 84 90 9.0 15.0 0.00 0.00 0.00 85 1010.4
20260903020648 84 90 9.0 15.0 0.00 0.00 0.00 84 1010.4
20260903020142 84 162 9.0 15.0 0.00 0.00 0.00 84 1010.4
20260903015642 84 151 10.0 15.0 0.00 0.00 0.00 84 1010.3
20260903015403 84 90 10.0 15.0 0.00 0.00 0.00 84 1010.3
20260903014641 85 90 11.0 18.0 0.00 0.00 0.00 84 1010.3
20260903014143 85 166 11.0 18.0 0.00 0.00 0.00 84 1010.3
20260903013641 85 153 11.0 18.0 0.00 0.00 0.00 84 1010.3
20260903013140 85 90 11.0 18.0 0.00 0.00 0.00 84 1010.3
20260903012640 85 176 11.0 21.0 0.00 0.00 0.00 83 1010.1
20260903011640 85 90 14.0 21.0 0.00 0.00 0.00 83 1010.1
20260903011144 85 164 14.0 22.0 0.00 0.00 0.00 83 1009.9
20260903010635 85 140 13.0 22.0 0.00 0.00 0.00 82 1009.9
20260903010117 85 156 13.0 26.0 0.00 0.00 0.00 81 1009.9
20260903005841 86 153 14.0 26.0 0.00 0.00 0.00 81 1009.8
20260903005116 86 162 15.0 24.0 0.00 0.00 0.00 80 1009.8
20260903004846 86 170 15.0 24.0 0.00 0.00 0.00 79 1009.8
20260903004116 86 143 16.0 26.0 0.00 0.00 0.00 79 1009.7
20260903003615 86 136 15.0 26.0 0.00 0.00 0.00 80 1009.7
20260903003112 87 90 14.0 24.0 0.00 0.00 0.00 79 1009.7
20260903002613 87 90 15.0 25.0 0.00 0.00 0.00 79 1009.8
20260903002108 87 159 15.0 25.0 0.00 0.00 0.00 77 1009.8
20260903001604 88 170 15.0 26.0 0.00 0.00 0.00 78 1009.8
20260903001104 88 157 14.0 26.0 0.00 0.00 0.00 77 1009.8
20260903000606 88 166 15.0 26.0 0.00 0.00 0.00 77 1009.8
20260903000104 88 157 15.0 26.0 0.00 0.00 0.00 76 1009.8
20260902235605 88 196 15.0 26.0 0.00 0.00 0.00 76 1009.8
20260902235325 89 145 15.0 26.0 0.00 0.00 0.00 76 1009.8
20260902234609 89 162 15.0 25.0 0.00 0.00 0.00 76 1009.8
20260902234105 89 90 15.0 26.0 0.00 0.00 0.00 76 1009.6
20260902233606 89 90 16.0 26.0 0.00 0.00 0.00 75 1009.6
20260902233058 90 162 17.0 26.0 0.00 0.00 0.00 73 1009.6
20260902232543 91 90 16.0 25.0 0.00 0.00 0.00 72 1009.5
20260902232033 91 148 14.0 25.0 0.00 0.00 0.00 70 1009.5
20260902231527 92 127 14.0 23.0 0.00 0.00 0.00 69 1009.5
20260902231021 93 159 15.0 24.0 0.00 0.00 0.00 66 1009.4
20260902230749 93 151 15.0 26.0 0.00 0.00 0.00 63 1009.4
20260902230231 93 157 15.0 26.0 0.00 0.00 0.00 63 1009.4
20260902225509 94 177 14.0 23.0 0.00 0.00 0.00 63 1009.3
20260902225005 94 90 14.0 22.0 0.00 0.00 0.00 62 1009.3
20260902224507 94 128 14.0 22.0 0.00 0.00 0.00 62 1009.3
20260902224006 94 159 15.0 22.0 0.00 0.00 0.00 60 1009.3
20260902223509 95 173 13.0 22.0 0.00 0.00 0.00 60 1009.3
20260902222506 94 155 12.0 20.0 0.00 0.00 0.00 57 1009.3
20260902222005 94 159 12.0 20.0 0.00 0.00 0.00 56 1009.3
20260902221506 95 192 11.0 23.0 0.00 0.00 0.00 57 1009.3
20260902221009 95 198 11.0 23.0 0.00 0.00 0.00 56 1009.3
20260902220505 95 155 11.0 20.0 0.00 0.00 0.00 58 1009.3
20260902220004 96 167 11.0 20.0 0.00 0.00 0.00 58 1009.3
20260902215452 96 170 11.0 23.0 0.00 0.00 0.00 59 1009.3
20260902214951 96 155 12.0 23.0 0.00 0.00 0.00 59 1009.3
20260902214437 96 151 12.0 23.0 0.00 0.00 0.00 59 1009.3
20260902213926 96 153 11.0 23.0 0.00 0.00 0.00 58 1009.3
20260902213417 96 195 10.0 21.0 0.00 0.00 0.00 58 1009.3
20260902212917 96 194 9.0 19.0 0.00 0.00 0.00 60 1009.5
20260902212420 96 176 10.0 19.0 0.00 0.00 0.00 58 1009.5
20260902211917 96 90 10.0 19.0 0.00 0.00 0.00 57 1009.5
20260902211417 97 192 10.0 21.0 0.00 0.00 0.00 58 1009.8
20260902210918 97 195 10.0 21.0 0.00 0.00 0.00 58 1009.8
20260902210417 97 170 10.0 18.0 0.00 0.00 0.00 58 1009.8
20260902210140 97 186 10.0 19.0 0.00 0.00 0.00 60 1010.0
20260902205417 97 181 10.0 23.0 0.00 0.00 0.00 58 1010.0
20260902204918 98 188 10.0 23.0 0.00 0.00 0.00 58 1010.0
20260902204410 98 90 9.0 16.0 0.00 0.00 0.00 58 1010.3
20260902204135 98 199 8.0 16.0 0.00 0.00 0.00 60 1010.3
20260902203411 98 199 6.0 13.0 0.00 0.00 0.00 61 1010.3
20260902202912 98 90 6.0 12.0 0.00 0.00 0.00 56 1010.3
20260902202632 98 196 7.0 12.0 0.00 0.00 0.00 56 1010.3
20260902201911 99 220 7.0 12.0 0.00 0.00 0.00 58 1010.3
20260902201412 99 223 6.0 12.0 0.00 0.00 0.00 56 1010.7
20260902200908 99 191 5.0 14.0 0.00 0.00 0.00 56 1010.7
20260902200409 99 222 6.0 14.0 0.00 0.00 0.00 56 1010.7
20260902195909 99 195 8.0 15.0 0.00 0.00 0.00 56 1010.8
20260902195409 98 178 9.0 15.0 0.00 0.00 0.00 61 1010.8
20260902194907 99 208 8.0 13.0 0.00 0.00 0.00 58 1010.8
20260902194407 98 224 7.0 12.0 0.00 0.00 0.00 60 1011.0
20260902194127 97 228 6.0 12.0 0.00 0.00 0.00 61 1011.0
20260902193406 97 90 7.0 12.0 0.00 0.00 0.00 59 1011.0
20260902192904 96 229 8.0 12.0 0.00 0.00 0.00 64 1011.4
20260902192406 96 230 7.0 12.0 0.00 0.00 0.00 62 1011.4
20260902191905 95 219 6.0 9.0 0.00 0.00 0.00 66 1011.4
20260902191624 95 224 6.0 8.0 0.00 0.00 0.00 64 1011.5
20260902190850 96 230 5.0 8.0 0.00 0.00 0.00 63 1011.5
20260902190606 96 207 5.0 8.0 0.00 0.00 0.00 62 1011.5
20260902185834 96 226 5.0 10.0 0.00 0.00 0.00 61 1011.8
20260902185549 97 222 6.0 10.0 0.00 0.00 0.00 60 1011.8
20260902184814 97 222 7.0 10.0 0.00 0.00 0.00 60 1011.8
20260902184303 97 219 7.0 11.0 0.00 0.00 0.00 62 1011.9
20260902183802 97 228 6.0 11.0 0.00 0.00 0.00 62 1011.9
20260902183256 96 230 7.0 11.0 0.00 0.00 0.00 60 1011.9
20260902182746 96 234 6.0 11.0 0.00 0.00 0.00 62 1012.2
20260902182455 96 207 5.0 11.0 0.00 0.00 0.00 62 1012.2
20260902181726 96 212 6.0 9.0 0.00 0.00 0.00 63 1012.2
20260902181220 96 227 6.0 9.0 0.00 0.00 0.00 64 1012.4
20260902180709 95 224 6.0 10.0 0.00 0.00 0.00 64 1012.4
20260902180200 95 224 7.0 11.0 0.00 0.00 0.00 63 1012.4
20260902175648 94 218 6.0 11.0 0.00 0.00 0.00 66 1012.9
20260902175141 94 234 5.0 10.0 0.00 0.00 0.00 68 1012.9
20260902174644 94 233 6.0 10.0 0.00 0.00 0.00 66 1012.9
20260902174140 94 223 7.0 9.0 0.00 0.00 0.00 67 1012.9
20260902173648 94 230 8.0 11.0 0.00 0.00 0.00 66 1012.9
20260902173140 94 217 8.0 11.0 0.00 0.00 0.00 67 1012.9
20260902172645 94 220 7.0 13.0 0.00 0.00 0.00 66 1013.3
20260902172140 93 226 7.0 13.0 0.00 0.00 0.00 68 1013.3
20260902171915 93 228 8.0 13.0 0.00 0.00 0.00 69 1013.3
20260902171140 93 229 8.0 13.0 0.00 0.00 0.00 69 1013.5
20260902170649 92 226 7.0 8.0 0.00 0.00 0.00 70 1013.5
20260902165819 92 227 7.0 11.0 0.00 0.00 0.00 71 1013.9
20260902165317 92 225 7.0 11.0 0.00 0.00 0.00 70 1013.9
20260902164817 92 238 7.0 10.0 0.00 0.00 0.00 70 1013.9
20260902164309 92 226 6.0 14.0 0.00 0.00 0.00 72 1013.9
20260902164030 91 220 6.0 14.0 0.00 0.00 0.00 72 1013.9
20260902163309 92 236 8.0 15.0 0.00 0.00 0.00 72 1013.9
20260902162806 92 260 10.0 15.0 0.00 0.00 0.00 72 1013.9
20260902162307 91 226 10.0 15.0 0.00 0.00 0.00 72 1013.9
20260902161807 91 230 11.0 15.0 0.00 0.00 0.00 74 1013.9
20260902161306 91 227 11.0 15.0 0.00 0.00 0.00 75 1013.9
20260902160808 91 231 10.0 14.0 0.00 0.00 0.00 75 1013.9
20260902160254 91 228 10.0 14.0 0.00 0.00 0.00 76 1013.9
20260902155753 90 230 10.0 16.0 0.00 0.00 0.00 76 1013.8
20260902155255 89 224 11.0 16.0 0.00 0.00 0.00 77 1013.8
20260902154754 89 226 11.0 16.0 0.00 0.00 0.00 78 1013.8
20260902154255 88 235 10.0 16.0 0.00 0.00 0.00 80 1013.6
20260902153753 88 208 11.0 14.0 0.00 0.00 0.00 80 1013.6
20260902153516 87 216 11.0 15.0 0.00 0.00 0.00 80 1013.6
20260902153011 87 207 11.0 15.0 0.00 0.00 0.00 81 1013.7
20260902152254 87 228 10.0 15.0 0.00 0.00 0.00 81 1013.7
20260902151745 87 227 10.0 15.0 0.00 0.00 0.00 82 1013.7
20260902151238 87 218 10.0 15.0 0.00 0.00 0.00 82 1013.6
20260902150729 87 234 10.0 14.0 0.00 0.00 0.00 82 1013.6
20260902150217 86 213 9.0 14.0 0.00 0.00 0.00 83 1013.6
20260902145922 86 224 8.0 13.0 0.00 0.00 0.00 85 1013.7
20260902145151 86 223 8.0 13.0 0.00 0.00 0.00 84 1013.7
20260902144640 85 200 7.0 13.0 0.00 0.00 0.00 85 1013.7
20260902144131 85 214 7.0 11.0 0.00 0.00 0.00 86 1013.9
20260902143625 85 197 7.0 12.0 0.00 0.00 0.00 86 1013.9
20260902143119 85 219 7.0 12.0 0.00 0.00 0.00 86 1013.9
20260902142843 84 213 8.0 12.0 0.00 0.00 0.00 86 1013.6
20260902142102 84 220 8.0 12.0 0.00 0.00 0.00 87 1013.6
20260902141548 84 216 8.0 12.0 0.00 0.00 0.00 87 1013.6
20260902141043 84 220 7.0 11.0 0.00 0.00 0.00 87 1013.5
20260902140536 84 214 6.0 11.0 0.00 0.00 0.00 87 1013.5
20260902140027 83 220 6.0 10.0 0.00 0.00 0.00 88 1013.5
20260902135512 83 220 7.0 11.0 0.00 0.00 0.00 88 1013.4
20260902135004 83 232 8.0 11.0 0.00 0.00 0.00 88 1013.4
20260902134456 83 225 9.0 14.0 0.00 0.00 0.00 88 1013.4
20260902133947 83 219 8.0 14.0 0.00 0.00 0.00 88 1013.4
20260902133441 83 222 9.0 14.0 0.00 0.00 0.00 88 1013.4
20260902132934 83 216 9.0 14.0 0.00 0.00 0.00 88 1013.4
20260902132427 83 214 9.0 14.0 0.00 0.00 0.00 88 1013.4
20260902131912 82 236 10.0 13.0 0.00 0.00 0.00 88 1013.4
20260902131406 82 215 9.0 13.0 0.00 0.00 0.00 88 1013.0
20260902130856 82 224 8.0 12.0 0.00 0.00 0.00 89 1013.0
20260902130356 82 228 8.0 12.0 0.00 0.00 0.00 89 1013.0
20260902125856 82 216 7.0 12.0 0.00 0.00 0.00 89 1012.9
20260902125621 82 219 7.0 12.0 0.00 0.00 0.00 89 1012.9
20260902124854 82 213 8.0 12.0 0.00 0.00 0.00 89 1012.9
20260902124624 82 222 9.0 13.0 0.00 0.00 0.00 89 1012.7
20260902124114 82 227 9.0 13.0 0.00 0.00 0.00 89 1012.7
20260902123355 82 218 9.0 13.0 0.00 0.00 0.00 89 1012.7
20260902122852 82 228 9.0 13.0 0.00 0.00 0.00 89 1012.6
20260902122354 82 218 8.0 13.0 0.00 0.00 0.00 89 1012.6
20260902121853 82 220 7.0 13.0 0.00 0.00 0.00 89 1012.6
20260902121355 82 212 6.0 11.0 0.00 0.00 0.00 89 1012.5
20260902120850 82 227 7.0 11.0 0.00 0.00 0.00 89 1012.5
20260902120349 82 220 7.0 11.0 0.00 0.00 0.00 89 1012.5
20260902115850 82 205 6.0 11.0 0.00 0.00 0.00 89 1012.5
20260902115613 82 214 6.0 11.0 0.00 0.00 0.00 89 1012.5
20260902114849 82 213 6.0 11.0 0.00 0.00 0.00 89 1012.5
20260902114348 82 194 5.0 11.0 0.00 0.00 0.00 89 1012.5
20260902113847 82 208 5.0 10.0 0.00 0.00 0.00 89 1012.5
20260902113348 82 212 5.0 10.0 0.00 0.00 0.00 88 1012.5
20260902112836 82 220 5.0 10.0 0.00 0.00 0.00 88 1012.4
20260902112330 82 211 6.0 10.0 0.00 0.00 0.00 88 1012.4
20260902111829 82 209 7.0 10.0 0.00 0.00 0.00 88 1012.4
20260902111329 82 206 7.0 14.0 0.00 0.00 0.00 89 1012.2
20260902110829 82 215 8.0 14.0 0.00 0.00 0.00 89 1012.2
20260902110328 82 200 7.0 12.0 0.00 0.00 0.00 88 1012.2
20260902105828 82 207 6.0 11.0 0.00 0.00 0.00 89 1012.1
20260902105326 82 224 6.0 12.0 0.00 0.00 0.00 89 1012.1
20260902104824 82 203 6.0 12.0 0.00 0.00 0.00 89 1012.1
20260902104321 82 203 5.0 12.0 0.00 0.00 0.00 89 1011.9
20260902103818 82 202 5.0 12.0 0.00 0.00 0.00 89 1011.9
20260902103318 82 228 4.0 11.0 0.00 0.00 0.00 89 1011.9
20260902102804 82 205 4.0 11.0 0.00 0.00 0.00 89 1011.9
20260902102258 82 186 5.0 11.0 0.00 0.00 0.00 88 1011.9
20260902101748 82 199 5.0 11.0 0.00 0.00 0.00 88 1011.9
20260902101237 82 196 5.0 11.0 0.00 0.00 0.00 88 1011.9
20260902100732 82 187 5.0 11.0 0.00 0.00 0.00 88 1011.9
20260902100226 82 206 6.0 13.0 0.00 0.00 0.00 88 1011.9
20260902095715 82 213 6.0 13.0 0.00 0.00 0.00 88 1011.8
20260902095202 82 213 6.0 10.0 0.00 0.00 0.00 88 1011.8
20260902094659 82 178 6.0 10.0 0.00 0.00 0.00 88 1011.8
20260902094150 82 182 5.0 12.0 0.00 0.00 0.00 88 1011.8
20260902093640 82 166 6.0 12.0 0.00 0.00 0.00 88 1011.8
20260902093352 82 220 7.0 12.0 0.00 0.00 0.00 88 1011.8
20260902092624 82 217 6.0 12.0 0.00 0.00 0.00 88 1011.8
20260902092113 82 213 6.0 11.0 0.00 0.00 0.00 88 1011.8
20260902091603 82 206 6.0 11.0 0.00 0.00 0.00 88 1011.8
20260902091054 82 212 6.0 11.0 0.00 0.00 0.00 88 1011.9
20260902090806 82 193 6.0 11.0 0.00 0.00 0.00 88 1011.9
20260902090041 82 213 6.0 10.0 0.00 0.00 0.00 88 1011.9
20260902085531 82 186 6.0 10.0 0.00 0.00 0.00 88 1011.9
20260902085025 82 191 5.0 10.0 0.00 0.00 0.00 88 1011.9
20260902084515 83 204 5.0 12.0 0.00 0.00 0.00 88 1011.9
20260902084012 83 223 6.0 13.0 0.00 0.00 0.00 88 1011.9
20260902083722 83 215 6.0 13.0 0.00 0.00 0.00 88 1011.9
20260902082949 83 207 6.0 11.0 0.00 0.00 0.00 89 1011.9
20260902082703 83 186 5.0 11.0 0.00 0.00 0.00 88 1011.9
20260902081937 82 206 5.0 11.0 0.00 0.00 0.00 88 1011.9
20260902081428 82 207 4.0 11.0 0.00 0.00 0.00 88 1012.0
20260902080928 82 213 4.0 10.0 0.00 0.00 0.00 89 1012.0
20260902080428 82 177 5.0 11.0 0.00 0.00 0.00 89 1012.0
20260902075929 82 90 4.0 11.0 0.00 0.00 0.00 89 1012.0